This demonstration page uses our WeatherBlox Daily Observations layout. Learn more.

39.92423, -83.80882

Hourly Observations for September 13, 2017

Temp ( °F °C ) Dew Point ( °F °C ) Humidity (%) Winds ( mph kmh ) Pressure ( in mb ) Visibility ( mi km ) Precip ( " mm )
1:56 am 01:56 Cloudy 61 16.1 59 15 93 93 SE 7 11 29.8 1009 10 16.09344 0 0
2:14 am 02:14 Cloudy 61 16 61 16 100 100 SW 5 7 29.8 1009 9 14.484096 0 0
2:56 am 02:56 Cloudy 61 16.1 60 15.6 97 97 Calm 29.8 1009 7 11.265408 0 0
3:12 am 03:12 Cloudy with Mist and Fog 61 16 61 16 100 100 Calm 29.77 1008 6 9.656064 0 0
3:20 am 03:20 Cloudy with Mist and Fog 61 16 61 16 100 100 Calm 29.77 1008 6 9.656064 0 0
3:44 am 03:44 Cloudy with Mist and Fog 61 16 61 16 100 100 Calm 29.77 1008 6 9.656064 0 0
3:52 am 03:52 Cloudy with Mist and Fog 61 16 61 16 100 100 E 3 6 29.77 1008 4 6.437376 0 0
3:56 am 03:56 Cloudy with Mist and Fog 60 15.6 60 15.6 100 100 E 3 6 29.8 1009 3 4.828032 0 0
4:30 am 04:30 Cloudy with Light Rain 61 16 61 16 100 100 S 3 6 29.8 1009 7 11.265408 0.001 0.001
5:08 am 05:08 Cloudy with Light Rain 61 16 61 16 100 100 S 3 6 29.8 1009 6 9.656064 0.001 0.001
5:26 am 05:26 Cloudy with Light Rain 61 16 61 16 100 100 SSE 3 6 29.8 1009 5 8.04672 0.001 0.001
5:56 am 05:56 Cloudy with Light Rain 61 16.1 60 15.6 97 97 E 3 6 29.83 1010 7 11.265408 0.01 0.254
6:56 am 06:56 Cloudy 60 15.6 60 15.6 100 100 SSE 3 6 29.83 1010 7 11.265408 0.001 0.001
7:31 am 07:31 Cloudy 61 16 61 16 100 100 SSE 5 7 29.83 1010 7 11.265408 0 0
7:49 am 07:49 Cloudy 61 16 61 16 100 100 SSE 3 6 29.83 1010 7 11.265408 0 0
8:13 am 08:13 Cloudy 61 16 61 16 100 100 S 5 7 29.83 1010 9 14.484096 0 0
8:30 am 08:30 Cloudy 61 16 61 16 100 100 Calm 29.83 1010 8 12.874752 0 0
8:39 am 08:39 Cloudy 61 16 61 16 100 100 SSE 3 6 29.83 1010 8 12.874752 0 0
8:56 am 08:56 Cloudy 62 16.7 61 16.1 96 96 SE 3 6 29.83 1010 10 16.09344 0 0
9:37 am 09:37 Cloudy 63 17 63 17 100 100 SE 3 6 29.83 1010 10 16.09344 0 0
9:56 am 09:56 Cloudy 63 17.2 62 16.7 97 97 E 3 6 29.83 1010 10 16.09344 0 0
10:22 am 10:22 Cloudy 64 18 63 17 94 94 ESE 5 7 29.83 1010 10 16.09344 0 0
10:28 am 10:28 Cloudy 64 18 63 17 94 94 ESE 5 7 29.83 1010 10 16.09344 0 0
10:38 am 10:38 Cloudy 64 18 63 17 94 94 SE 6 9 29.83 1010 10 16.09344 0 0
10:45 am 10:45 Cloudy 64 18 63 17 94 94 SE 6 9 29.83 1010 10 16.09344 0 0
10:56 am 10:56 Cloudy 65 18.3 62 16.7 90 90 SE 8 13 29.83 1010 10 16.09344 0 0
11:05 am 11:05 Cloudy 64 18 63 17 94 94 SSE 9 15 29.83 1010 10 16.09344 0 0
11:56 am 11:56 Cloudy 66 18.9 62 16.7 87 87 SE 10 17 29.83 1010 10 16.09344 0 0
12:04 pm 12:04 Cloudy 66 19 63 17 88 88 SSE 7 11 29.83 1010 10 16.09344 0 0
12:25 pm 12:25 Cloudy 66 19 63 17 88 88 SSE 8 13 29.83 1010 10 16.09344 0 0
12:56 pm 12:56 Cloudy 67 19.4 62 16.7 84 84 SSE 7 11 29.83 1010 10 16.09344 0 0
1:07 pm 13:07 Cloudy 66 19 63 17 88 88 S 6 9 29.83 1010 10 16.09344 0 0
1:56 pm 13:56 Cloudy 68 20 61 16.1 78 78 SSE 7 11 29.8 1009 10 16.09344 0 0
2:10 pm 14:10 Cloudy 68 20 61 16 78 78 SSE 6 9 29.8 1009 10 16.09344 0 0
2:19 pm 14:19 Cloudy 68 20 61 16 78 78 S 7 11 29.8 1009 10 16.09344 0 0
2:56 pm 14:56 Cloudy 67 19.4 60 15.6 79 79 S 5 7 29.8 1009 10 16.09344 0 0
3:56 pm 15:56 Cloudy 64 17.8 60 15.6 87 87 S 6 9 29.8 1009 10 16.09344 0.01 0.254
4:56 pm 16:56 Cloudy 64 17.8 59 15 84 84 S 7 11 29.8 1009 10 16.09344 0 0
5:43 pm 17:43 Cloudy 64 18 59 15 83 83 S 8 13 29.77 1008 10 16.09344 0 0
5:52 pm 17:52 Cloudy 63 17 57 14 83 83 S 6 9 29.77 1008 10 16.09344 0 0
5:56 pm 17:56 Cloudy with Light Rain 63 17.2 59 15 87 87 S 6 9 29.8 1009 10 16.09344 0.001 0.001
6:25 pm 18:25 Cloudy with Light Rain 63 17 59 15 88 88 S 5 7 29.77 1008 10 16.09344 0.001 0.001
6:56 pm 18:56 Cloudy with Light Rain 62 16.7 59 15 90 90 SSE 10 17 29.8 1009 10 16.09344 0.001 0.001
7:11 pm 19:11 Cloudy with Light Rain 61 16 59 15 94 94 S 6 9 29.8 1009 10 16.09344 0.001 0.001
7:56 pm 19:56 Cloudy with Light Rain 60 15.6 59 15 96 96 S 5 7 29.8 1009 6 9.656064 0.01 0.254
8:04 pm 20:04 Cloudy with Light Rain 61 16 59 15 94 94 SSE 3 6 29.8 1009 4 6.437376 0.001 0.001
8:14 pm 20:14 Cloudy with Light Rain 61 16 59 15 94 94 SSE 6 9 29.8 1009 5 8.04672 0.01 0.254
8:47 pm 20:47 Cloudy with Light Rain 61 16 59 15 94 94 SSE 7 11 29.8 1009 10 16.09344 0.01 0.254
8:56 pm 20:56 Cloudy with Light Rain 60 15.6 59 15 96 96 S 6 9 29.83 1010 10 16.09344 0.01 0.254
9:17 pm 21:17 Cloudy 61 16 59 15 94 94 S 5 7 29.8 1009 10 16.09344 0.001 0.001
9:26 pm 21:26 Cloudy 61 16 59 15 94 94 S 5 7 29.8 1009 10 16.09344 0.001 0.001
9:56 pm 21:56 Cloudy with Light Rain 60 15.6 59 15 96 96 S 5 7 29.83 1010 10 16.09344 0.001 0.001
10:56 pm 22:56 Cloudy with Light Rain 59 15 59 15 100 100 S 3 6 29.83 1010 8 12.874752 0.01 0.254
11:56 pm 23:56 Cloudy with Light Rain 59 15 59 15 100 100 S 5 7 29.83 1010 4 6.437376 0.001 0.001

Powered by AerisWeather